Location: Twentynine Palms Airport
(34.1316°N, 115.9458°W)
Time: 04:56:47
(UTC-07:00)

Amateur Radio Satellites - All Passes

Search period start: 28 May 2015 04:26
Search period end: 29 May 2015 04:26
Location: Twentynine Palms Airport, 34.1316°N, 115.9458°W

Satellite Date Start Highest point End Downlink Frequencies (MHz)
Time Altitude Azimuth
VERMONT LUNAR 28 May 04:37:12 04:40:02 28° 9° (N) 04:42:52 437.305
Cosmos 2491 28 May 04:44:34 04:46:47 11° 60° (ENE) 04:49:49 435.465 / 435.565
MOZHAYETS 4 28 May 04:49:32 04:54:05 70° 259° (W) 04:58:40
JAS-2 28 May 04:52:54 04:58:02 66° 285° (WNW) 05:03:27 435.910
ISS 28 May 04:55:05 04:56:56 14° 29° (NNE) 04:58:51 145.825
AIST 2 28 May 04:58:24 05:01:45 23° 248° (WSW) 05:04:58 435.215
PHONESAT 2.4 28 May 05:20:50 05:23:52 27° 3° (N) 05:26:54 2401.200-2431.200
HORYU 2 28 May 05:37:23 05:40:13 16° 291° (WNW) 05:42:52 437.375
PRISM 28 May 05:47:14 05:48:58 13° 68° (ENE) 05:50:54 437.425
AO-7 28 May 05:57:36 06:05:20 42° 294° (WNW) 06:12:58 29.400- 29.500
M-CUBED/EXP-1 PRIME 28 May 06:02:25 06:04:01 12° 66° (ENE) 06:05:46 437.505
AUBIESAT-1 28 May 06:09:13 06:10:52 13° 66° (ENE) 06:12:41 437.475
VERMONT LUNAR 28 May 06:14:16 06:17:28 89° 206° (SSW) 06:20:39 437.305
ISS 28 May 06:30:25 06:33:39 60° 226° (SW) 06:36:51 145.825
CUBESAT XI-V 28 May 06:31:55 06:36:30 74° 260° (W) 06:41:08 437.345
Cosmos 2491 28 May 06:36:43 06:45:34 74° 81° (E) 06:54:20 435.465 / 435.565
STRAND 1 28 May 06:44:58 06:49:58 60° 74° (ENE) 06:55:00 437.568
CUTE-I 28 May 06:46:23 06:51:39 55° 100° (E) 06:56:54 437.470
PHONESAT 2.4 28 May 06:58:57 07:02:23 57° 20° (NNE) 07:05:47 2401.200-2431.200
RS-15 28 May 07:04:47 07:12:14 23° 104° (ESE) 07:20:23 29.354- 29.394
Cubesat XI-IV 28 May 07:07:19 07:12:43 89° 94° (E) 07:18:07 437.490
PRISM 28 May 07:20:14 07:24:06 41° 261° (W) 07:27:58 437.425
YUBILEINY 28 May 07:22:20 07:31:02 74° 94° (E) 07:39:45 435.215
M-CUBED/EXP-1 PRIME 28 May 07:34:28 07:38:38 47° 256° (WSW) 07:42:28 437.505
AUBIESAT-1 28 May 07:41:20 07:45:26 44° 256° (WSW) 07:49:13 437.475
AIST 1 28 May 07:50:37 07:55:02 85° 86° (E) 07:59:26
VERMONT LUNAR 28 May 07:52:44 07:54:21 13° 217° (SW) 07:55:52 437.305
GOMX 1 28 May 08:21:52 08:26:18 28° 93° (E) 08:30:36 467.674
BRITE-PL 28 May 08:26:03 08:31:29 52° 98° (E) 08:36:38 437.365/2234.400
STRAND 1 28 May 08:27:20 08:29:39 13° 270° (W) 08:31:38 437.568
CUTE-I 28 May 08:27:56 08:31:20 17° 294° (WNW) 08:34:29 437.470
Cosmos 2491 28 May 08:35:42 08:41:39 19° 277° (W) 08:47:04 435.465 / 435.565
PHONESAT 2.4 28 May 08:37:24 08:40:21 26° 214° (SW) 08:43:15 2401.200-2431.200
CINEMA 3 28 May 08:44:52 08:46:16 12° 88° (E) 08:47:58 145.822/145.860
HO-68 28 May 08:50:55 08:57:32 41° 98° (E) 09:04:12 435.675
PCSat 28 May 08:58:27 09:02:08 19° 51° (NE) 09:05:58 145.827
CANX-2 28 May 09:11:31 09:15:41 61° 100° (E) 09:19:50 2200.000
RS-15 28 May 09:12:44 09:23:37 77° 301° (WNW) 09:34:46 29.354- 29.394
CUTE 1.7 + AOD 2 28 May 09:14:50 09:19:00 60° 100° (E) 09:23:09 437.475
DOVE 4 28 May 09:15:04 09:20:04 64° 99° (E) 09:24:46 437.250
YUBILEINY 28 May 09:22:33 09:28:50 20° 293° (WNW) 09:34:40 435.215
ANTELSAT 28 May 09:25:00 09:27:07 13° 68° (ENE) 09:29:30 437.575/2403.000
CUBEBUG 2 28 May 09:25:24 09:27:59 16° 91° (E) 09:30:42 437.445
Oscar 11 28 May 09:29:03 09:32:09 20° 94° (E) 09:35:21 145.826/435.025
Cosmos 2504 28 May 09:35:02 09:43:07 54° 92° (E) 09:50:45 435.465 / 435.565
SEEDS 28 May 09:35:04 09:39:15 87° 99° (E) 09:43:26 437.485
COMPASS 1 28 May 09:45:53 09:50:03 87° 279° (W) 09:54:11 437.405
TIGRISAT 28 May 09:55:07 09:59:04 28° 72° (ENE) 10:03:03 435.000
AAUSAT CUBESAT 2 28 May 09:56:44 10:00:52 75° 283° (WNW) 10:04:59 437.432
GOMX 1 28 May 09:59:48 10:04:23 29° 290° (WNW) 10:08:38 467.674
QB50P1 28 May 10:01:27 10:03:24 13° 68° (ENE) 10:05:35 145.935-145.965
POLYITAN 1 28 May 10:03:56 10:06:14 15° 69° (ENE) 10:08:44 437.675
BRITE-PL 28 May 10:05:42 10:09:32 19° 293° (WNW) 10:13:03 437.365/2234.400
UWE-3 28 May 10:08:20 10:12:26 41° 98° (E) 10:16:25 435.000/436.395/437.385
JUGNU 28 May 10:12:23 10:16:12 18° 172° (S) 10:20:03 437.505
DELFI C3 28 May 10:13:52 10:17:46 49° 99° (E) 10:21:40 145.870
FUNcube-1 28 May 10:14:20 10:18:15 35° 97° (E) 10:22:07 145.935
UNISAT 6 28 May 10:15:37 10:20:07 49° 75° (ENE) 10:24:38 437.425
CINEMA 3 28 May 10:19:25 10:23:57 52° 285° (WNW) 10:28:15 145.822/145.860
NANOSAT C BR1 28 May 10:30:22 10:34:00 29° 72° (ENE) 10:37:44 145.865
SO-50 28 May 10:36:10 10:38:07 12° 43° (NE) 10:40:17 436.795
HUMSAT D 28 May 10:37:08 10:40:42 28° 96° (E) 10:44:17 437.325/437.525
HO-68 28 May 10:38:52 10:45:09 33° 293° (WNW) 10:51:16 435.675
QB50P2 28 May 10:39:13 10:43:10 38° 74° (ENE) 10:47:11 145.880/145.840
PCSat 28 May 10:40:39 10:45:57 55° 248° (WSW) 10:51:12 145.827
POPSAT HIP 1 28 May 10:50:52 10:55:01 51° 74° (ENE) 10:59:13 437.405
DUCHIFAT 1 28 May 10:51:31 10:55:38 51° 75° (ENE) 10:59:49 145.980
UKube-1 28 May 10:53:51 10:58:01 44° 99° (E) 11:02:10 .
DOVE 4 28 May 10:55:06 10:57:14 12° 295° (WNW) 10:59:03 437.250
ZACube-1 28 May 10:55:18 10:59:35 66° 284° (WNW) 11:03:43 437.345
ANTELSAT 28 May 10:58:55 11:03:31 53° 260° (W) 11:08:05 437.575/2403.000
CUBEBUG 2 28 May 11:00:51 11:04:52 34° 287° (WNW) 11:08:43 437.445
Oscar 11 28 May 11:04:39 11:08:21 28° 288° (WNW) 11:11:58 145.826/435.025
DX 1 28 May 11:04:47 11:09:10 67° 101° (E) 11:13:31 434.975-435.025
BUGSAT 1 28 May 11:07:33 11:11:34 52° 75° (ENE) 11:15:40 437.445
50 SAT 28 May 11:11:28 11:15:07 39° 98° (E) 11:18:44 437.505
CUBEBUG 1 28 May 11:19:25 11:22:50 22° 94° (E) 11:26:21 437.445
VELOX 1 28 May 11:25:03 11:29:26 53° 100° (E) 11:33:49 145.980
Cosmos 2504 28 May 11:30:02 11:36:52 26° 288° (WNW) 11:43:06 435.465 / 435.565
RS-15 28 May 11:30:17 11:38:23 22° 327° (NNW) 11:46:14 29.354- 29.394
TIGRISAT 28 May 11:31:56 11:35:46 24° 265° (W) 11:39:29 435.000
SRMSAT 28 May 11:32:48 11:36:18 16° 170° (S) 11:39:51 437.500
ESTCUBE 1 28 May 11:34:13 11:38:26 39° 98° (E) 11:42:42 437.505/2401.250
QB50P1 28 May 11:34:50 11:38:55 44° 261° (W) 11:43:02 145.935-145.965
POLYITAN 1 28 May 11:37:47 11:41:51 40° 262° (W) 11:45:55 437.675
UWE-3 28 May 11:46:16 11:48:37 14° 292° (WNW) 11:50:44 435.000/436.395/437.385
DELFI C3 28 May 11:51:42 11:52:30 10° 292° (WNW) 11:53:03 145.870
FUNcube-1 28 May 11:51:42 11:54:18 15° 291° (WNW) 11:56:43 145.935
SPROUT 28 May 11:53:15 11:55:13 13° 91° (E) 11:57:25 437.525
GONETS M04 28 May 11:53:43 12:00:09 24° 85° (E) 12:06:58
UNISAT 6 28 May 11:54:47 11:57:12 13° 269° (W) 11:59:21 437.425
AISAT 28 May 11:57:16 12:01:43 60° 285° (WNW) 12:06:07 437.250
JUGNU 28 May 12:00:24 12:04:35 20° 182° (S) 12:08:43 437.505
DANDE 28 May 12:02:42 12:08:23 28° 85° (E) 12:15:10 436.750
Oscar 19 28 May 12:05:40 12:07:27 12° 65° (ENE) 12:09:33 437.125/150
NANOSAT C BR1 28 May 12:06:44 12:09:53 19° 266° (W) 12:12:54 145.865
TISAT 1 28 May 12:09:59 12:12:15 15° 92° (E) 12:14:43 437.305
HUMSAT D 28 May 12:13:23 12:16:16 18° 290° (WNW) 12:19:00 437.325/437.525
SO-50 28 May 12:14:25 12:19:24 85° 243° (WSW) 12:24:15 436.795
QB50P2 28 May 12:16:48 12:19:16 14° 268° (W) 12:21:32 145.880/145.840
CUSAT 1 28 May 12:21:37 12:28:30 52° 92° (E) 12:36:28 437.405
POPSAT HIP 1 28 May 12:30:13 12:31:16 11° 270° (W) 12:32:01 437.405
DUCHIFAT 1 28 May 12:30:46 12:31:49 11° 270° (W) 12:32:34 145.980
UKube-1 28 May 12:31:31 12:33:49 14° 292° (WNW) 12:35:54 .
50 SAT 28 May 12:48:05 12:49:30 11° 291° (WNW) 12:50:41 437.505
CUBEBUG 1 28 May 12:55:23 12:59:10 27° 288° (WNW) 13:02:52 437.445
VELOX 1 28 May 13:03:40 13:05:35 12° 293° (WNW) 13:07:15 145.980
Gurwin Techsat 1B 28 May 13:09:55 13:12:28 14° 66° (ENE) 13:15:19 435.225
ESTCUBE 1 28 May 13:12:06 13:15:02 17° 291° (WNW) 13:17:48 437.505/2401.250
SRMSAT 28 May 13:20:38 13:24:49 20° 180° (S) 13:28:59 437.500
SPROUT 28 May 13:27:27 13:31:34 42° 286° (WNW) 13:35:36 437.525
Oscar 19 28 May 13:41:06 13:46:16 72° 258° (WSW) 13:51:29 437.125/150
DANDE 28 May 13:44:14 13:51:06 53° 285° (WNW) 13:59:16 436.750
TISAT 1 28 May 13:44:15 13:48:13 37° 287° (WNW) 13:52:06 437.305
ITUPSAT 1 28 May 13:47:30 13:51:36 28° 96° (E) 13:55:46 437.325
GONETS M04 28 May 13:47:42 13:56:26 62° 280° (W) 14:05:10
JUGNU 28 May 13:49:51 13:52:55 14° 192° (SSW) 13:55:55 437.505
BEESAT 28 May 13:53:55 13:58:15 34° 98° (E) 14:02:36 436.000
RS-15 28 May 13:54:40 13:57:14 11° 3° (N) 13:59:54 29.354- 29.394
ITAMSAT 1 28 May 13:59:12 14:04:06 47° 73° (ENE) 14:09:04 435.822/435.867
Cosmos 2499 28 May 14:00:50 14:07:27 29° 88° (E) 14:13:54 435.465 / 435.565
SWISSCUBE 28 May 14:02:29 14:07:06 47° 100° (E) 14:11:43 437.505
CUSAT 1 28 May 14:05:07 14:11:36 30° 291° (WNW) 14:18:34 437.405
Gurwin Techsat 1B 28 May 14:46:44 14:51:59 63° 259° (W) 14:57:16 435.225
HORYU 2 28 May 14:54:53 14:58:21 23° 70° (ENE) 15:01:56 437.375
AO-7 28 May 15:00:02 15:07:23 39° 65° (ENE) 15:14:55 29.400- 29.500
JAS-2 28 May 15:00:49 15:06:43 35° 72° (ENE) 15:12:07 435.910
O/OREOS (USA 219) 28 May 15:06:01 15:10:30 67° 108° (ESE) 15:14:58 437.305
KKS-1 28 May 15:06:42 15:10:47 34° 97° (E) 15:14:52 437.445
SRMSAT 28 May 15:09:49 15:13:19 16° 190° (S) 15:16:45 437.500
ITUPSAT 1 28 May 15:25:29 15:29:24 25° 290° (WNW) 15:33:11 437.325
BEESAT 28 May 15:32:19 15:35:53 21° 291° (WNW) 15:39:19 436.000
ITAMSAT 1 28 May 15:40:30 15:43:54 17° 268° (W) 15:47:04 435.822/435.867
SWISSCUBE 28 May 15:41:44 15:44:37 15° 292° (WNW) 15:47:17 437.505
Cosmos 2499 28 May 15:52:35 16:00:23 46° 282° (WNW) 16:07:36 435.465 / 435.565
STARS 28 May 16:06:15 16:10:41 76° 284° (WNW) 16:15:03 437.465
RS-15 28 May 16:06:49 16:15:46 26° 37° (NE) 16:25:24 29.354- 29.394
BEESAT 3 28 May 16:22:13 16:24:36 16° 110° (ESE) 16:27:11 437.485
HORYU 2 28 May 16:31:03 16:34:53 27° 264° (W) 16:38:39 437.375
KKS-1 28 May 16:44:06 16:47:10 18° 291° (WNW) 16:50:06 437.445
JAS-2 28 May 16:45:47 16:51:48 32° 263° (W) 16:57:08 435.910
MOZHAYETS 4 28 May 16:48:35 16:52:46 35° 97° (E) 16:57:00
O/OREOS (USA 219) 28 May 16:49:41 16:50:28 10° 305° (NW) 16:50:59 437.305
Cubesat XI-IV 28 May 16:50:18 16:51:27 11° 64° (ENE) 16:52:58 437.490
AO-7 28 May 16:52:21 17:00:07 42° 261° (W) 17:07:50 29.400- 29.500
BEESAT 2 28 May 17:11:49 17:15:45 49° 115° (ESE) 17:19:46 435.950
AIST 2 28 May 17:15:44 17:17:44 14° 110° (ESE) 17:19:58 435.215
YUBILEINY 28 May 17:37:58 17:45:09 29° 71° (ENE) 17:52:36 435.215
Cosmos 2491 28 May 17:41:14 17:45:28 15° 81° (E) 17:50:23 435.465 / 435.565
BEESAT 3 28 May 17:58:34 18:02:19 35° 304° (NW) 18:06:07 437.485
CUTE-I 28 May 18:04:33 18:09:45 62° 74° (ENE) 18:15:01 437.470
RS-15 28 May 18:18:22 18:30:10 87° 63° (ENE) 18:42:25 29.354- 29.394
Cubesat XI-IV 28 May 18:25:39 18:30:57 81° 257° (WSW) 18:36:19 437.490
MOZHAYETS 4 28 May 18:26:36 18:29:46 18° 290° (WNW) 18:32:47
CUBESAT XI-V 28 May 18:32:30 18:36:50 36° 97° (E) 18:41:12 437.345
AIST 2 28 May 18:51:53 18:55:58 45° 302° (WNW) 19:00:06 435.215
BEESAT 2 28 May 18:51:56 18:54:10 14° 312° (NW) 18:56:17 435.950
STRAND 1 28 May 18:59:45 19:04:05 28° 96° (E) 19:08:29 437.568
PRISM 28 May 19:06:08 19:09:53 33° 98° (E) 19:13:42 437.425
HO-68 28 May 19:16:59 19:21:57 21° 63° (ENE) 19:27:12 435.675
M-CUBED/EXP-1 PRIME 28 May 19:20:57 19:22:07 12° 98° (E) 19:23:28 437.505
GOMX 1 28 May 19:26:11 19:29:58 21° 68° (ENE) 19:34:02 467.674
AUBIESAT-1 28 May 19:27:06 19:28:23 12° 98° (E) 19:29:52 437.475
Cosmos 2491 28 May 19:32:34 19:41:22 87° 276° (W) 19:50:16 435.465 / 435.565
BRITE-PL 28 May 19:32:38 19:37:18 38° 72° (ENE) 19:42:21 437.365/2234.400
YUBILEINY 28 May 19:34:02 19:42:23 51° 269° (W) 19:50:37 435.215
Cosmos 2504 28 May 19:35:37 19:37:30 11° 64° (ENE) 19:40:00 435.465 / 435.565
CUTE-I 28 May 19:47:47 19:50:21 13° 270° (W) 19:52:34 437.470
CANX-2 28 May 20:01:09 20:04:43 27° 73° (ENE) 20:08:22 2200.000
CUTE 1.7 + AOD 2 28 May 20:04:25 20:07:58 27° 72° (ENE) 20:11:34 437.475
CUBESAT XI-V 28 May 20:10:42 20:14:03 19° 290° (WNW) 20:17:13 437.345
DOVE 4 28 May 20:16:05 20:20:53 44° 73° (ENE) 20:25:55 437.250
AIST 1 28 May 20:16:06 20:20:16 59° 94° (E) 20:24:30
CUBEBUG 2 28 May 20:21:50 20:22:44 11° 67° (ENE) 20:23:57 437.445
Oscar 11 28 May 20:22:52 20:23:28 10° 67° (ENE) 20:24:20 145.826/435.025
SEEDS 28 May 20:23:30 20:27:21 36° 74° (ENE) 20:31:14 437.485
RS-15 28 May 20:33:16 20:41:37 21° 256° (WSW) 20:49:18 29.354- 29.394
COMPASS 1 28 May 20:33:28 20:37:19 37° 74° (ENE) 20:41:11 437.405
STRAND 1 28 May 20:38:48 20:43:14 29° 290° (WNW) 20:47:35 437.568
PRISM 28 May 20:42:27 20:45:06 16° 291° (WNW) 20:47:37 437.425
AAUSAT CUBESAT 2 28 May 20:43:45 20:47:41 42° 75° (ENE) 20:51:38 437.432
M-CUBED/EXP-1 PRIME 28 May 20:54:17 20:57:06 26° 291° (WNW) 20:59:55 437.505
DELFI C3 28 May 20:58:32 21:01:18 19° 71° (ENE) 21:04:11 145.870
AUBIESAT-1 28 May 21:00:29 21:03:17 25° 291° (WNW) 21:06:06 437.475
UWE-3 28 May 21:01:53 21:05:34 24° 71° (ENE) 21:09:21 435.000/436.395/437.385
HO-68 28 May 21:02:02 21:09:10 65° 258° (WSW) 21:16:18 435.675
GOMX 1 28 May 21:02:57 21:07:46 41° 263° (W) 21:12:49 467.674
FUNcube-1 28 May 21:06:49 21:10:06 20° 70° (ENE) 21:13:31 145.935
BRITE-PL 28 May 21:12:03 21:16:00 22° 269° (W) 21:19:59 437.365/2234.400
CINEMA 3 28 May 21:16:12 21:21:11 89° 91° (E) 21:26:16 145.822/145.860
Cosmos 2504 28 May 21:24:55 21:32:08 89° 83° (E) 21:39:26 435.465 / 435.565
HUMSAT D 28 May 21:26:33 21:28:46 14° 69° (ENE) 21:31:10 437.325/437.525
ISS 28 May 21:31:11 21:33:46 22° 130° (SE) 21:36:24 145.825
Cosmos 2491 28 May 21:34:57 21:39:47 15° 297° (WNW) 21:43:57 435.465 / 435.565
CANX-2 28 May 21:37:28 21:40:40 20° 266° (W) 21:43:45 2200.000
CUTE 1.7 + AOD 2 28 May 21:40:38 21:43:53 20° 266° (W) 21:47:00 437.475
UKube-1 28 May 21:45:35 21:49:00 24° 71° (ENE) 21:52:31 .
ZACube-1 28 May 21:46:53 21:51:24 60° 76° (ENE) 21:55:55 437.345
50 SAT 28 May 21:53:48 21:56:00 15° 70° (ENE) 21:58:22 437.505
CUBEBUG 2 28 May 21:54:09 21:58:55 70° 259° (W) 22:03:41 437.445
Oscar 11 28 May 21:54:56 21:59:12 58° 260° (W) 22:03:29 145.826/435.025
DOVE 4 28 May 21:55:13 21:58:53 19° 269° (W) 22:02:26 437.250
DX 1 28 May 21:56:53 22:00:48 35° 73° (ENE) 22:04:48 434.975-435.025
SEEDS 28 May 22:00:51 22:03:19 15° 268° (W) 22:05:35 437.485
COMPASS 1 28 May 22:10:54 22:13:10 14° 268° (W) 22:15:14 437.405
UNISAT 6 28 May 22:13:31 22:15:16 13° 91° (E) 22:17:15 437.425
CUBEBUG 1 28 May 22:13:46 22:15:24 12° 68° (ENE) 22:17:17 437.445
VELOX 1 28 May 22:19:17 22:23:07 30° 72° (ENE) 22:27:01 145.980
AAUSAT CUBESAT 2 28 May 22:21:46 22:23:33 12° 269° (W) 22:25:04 437.432
ESTCUBE 1 28 May 22:30:49 22:34:18 23° 71° (ENE) 22:37:54 437.505/2401.250
DELFI C3 28 May 22:32:50 22:36:16 26° 264° (W) 22:39:38 145.870
UWE-3 28 May 22:37:55 22:41:58 28° 264° (W) 22:45:59 435.000/436.395/437.385
FUNcube-1 28 May 22:42:07 22:46:14 32° 263° (W) 22:50:19 145.935
POPSAT HIP 1 28 May 22:42:17 22:43:25 11° 90° (E) 22:44:51 437.405
DUCHIFAT 1 28 May 22:42:38 22:43:34 11° 90° (E) 22:44:47 145.980
DANDE 28 May 22:50:38 22:55:02 17° 61° (ENE) 22:59:11 436.750
AISAT 28 May 22:51:01 22:55:27 75° 76° (ENE) 22:59:55 437.250
ANTELSAT 28 May 22:54:59 22:59:05 41° 98° (E) 23:03:08 437.575/2403.000
BUGSAT 1 28 May 22:56:20 22:57:03 10° 90° (E) 22:58:04 437.445
HUMSAT D 28 May 23:00:06 23:04:12 41° 262° (W) 23:08:17 437.325/437.525
CUSAT 1 28 May 23:06:55 23:12:29 28° 68° (ENE) 23:17:04 437.405
ISS 28 May 23:07:18 23:10:06 26° 324° (NW) 23:12:54 145.825
UKube-1 28 May 23:21:32 23:25:04 24° 264° (W) 23:28:33 .
Cosmos 2504 28 May 23:22:34 23:24:41 11° 278° (W) 23:26:10 435.465 / 435.565
QB50P1 28 May 23:23:42 23:27:40 37° 98° (E) 23:31:38 145.935-145.965
TIGRISAT 28 May 23:26:37 23:30:59 83° 283° (WNW) 23:35:14 435.000
50 SAT 28 May 23:26:49 23:30:28 33° 263° (W) 23:34:05 437.505
POLYITAN 1 28 May 23:26:51 23:30:54 42° 98° (E) 23:34:56 437.675
ZACube-1 28 May 23:27:10 23:28:12 10° 271° (W) 23:28:53 437.345
DX 1 28 May 23:34:22 23:37:12 16° 267° (W) 23:39:52 434.975-435.025
PCSat 28 May 23:35:45 23:40:29 33° 109° (ESE) 23:45:19 145.827
CUBEBUG 1 28 May 23:47:08 23:51:22 50° 261° (W) 23:55:38 437.445
UNISAT 6 28 May 23:48:14 23:52:22 43° 286° (WNW) 23:56:24 437.425
NANOSAT C BR1 28 May 23:53:58 23:58:16 89° 298° (WNW) 00:02:30 145.865
VELOX 1 28 May 23:56:24 23:59:43 20° 266° (W) 00:02:55 145.980
GONETS M04 29 May 00:02:41 00:11:16 57° 79° (E) 00:19:49
QB50P2 29 May 00:03:42 00:07:57 65° 284° (WNW) 00:12:08 145.880/145.840
ESTCUBE 1 29 May 00:07:18 00:11:05 26° 264° (W) 00:14:48 437.505/2401.250
POPSAT HIP 1 29 May 00:15:31 00:19:38 48° 286° (WNW) 00:23:43 437.405
DUCHIFAT 1 29 May 00:15:36 00:19:43 49° 286° (WNW) 00:23:48 145.980
SPROUT 29 May 00:17:21 00:21:40 89° 83° (E) 00:26:02 437.525
VERMONT LUNAR 29 May 00:26:03 00:29:15 59° 152° (SSE) 00:32:26 437.305
BUGSAT 1 29 May 00:28:45 00:32:54 50° 285° (WNW) 00:36:59 437.445
TISAT 1 29 May 00:32:04 00:36:19 84° 257° (WSW) 00:40:36 437.305
DANDE 29 May 00:32:07 00:39:28 69° 266° (W) 00:45:00 436.750
ANTELSAT 29 May 00:33:10 00:35:33 14° 292° (WNW) 00:37:42 437.575/2403.000
CUSAT 1 29 May 00:49:25 00:55:16 34° 272° (W) 00:59:48 437.405
ITUPSAT 1 29 May 00:51:15 00:54:51 22° 70° (ENE) 00:58:34 437.325
BEESAT 29 May 00:57:10 01:01:03 26° 71° (ENE) 01:05:03 436.000
QB50P1 29 May 01:00:42 01:03:14 15° 291° (WNW) 01:05:36 145.935-145.965
POLYITAN 1 29 May 01:04:14 01:06:29 14° 292° (WNW) 01:08:31 437.675
SWISSCUBE 29 May 01:05:36 01:09:52 35° 72° (ENE) 01:14:13 437.505
PCSat 29 May 01:19:12 01:23:55 29° 305° (NW) 01:28:34 145.827
O/OREOS (USA 219) 29 May 01:19:41 01:24:08 68° 69° (ENE) 01:28:35 437.305
PHONESAT 2.4 29 May 01:21:21 01:24:39 41° 149° (SSE) 01:27:58 2401.200-2431.200
BEESAT 2 29 May 01:36:27 01:37:45 11° 46° (NE) 01:39:14 435.950
Cosmos 2499 29 May 01:47:38 01:54:22 47° 78° (ENE) 02:01:19 435.465 / 435.565
Oscar 19 29 May 01:56:34 02:01:37 55° 100° (E) 02:06:39 437.125/150
GONETS M04 29 May 02:00:40 02:07:37 26° 275° (W) 02:14:11
KKS-1 29 May 02:01:52 02:05:09 21° 70° (ENE) 02:08:35 437.445
VERMONT LUNAR 29 May 02:03:35 02:06:33 33° 347° (NNW) 02:09:31 437.305
ITAMSAT 1 29 May 02:16:25 02:20:25 23° 94° (E) 02:24:34 435.822/435.867
BEESAT 3 29 May 02:20:26 02:24:15 39° 57° (ENE) 02:28:03 437.485
SO-50 29 May 02:24:58 02:29:35 76° 118° (ESE) 02:34:24 436.795
ITUPSAT 1 29 May 02:28:22 02:32:36 31° 263° (W) 02:36:47 437.325
BEESAT 29 May 02:34:51 02:38:51 26° 265° (W) 02:42:46 436.000
SWISSCUBE 29 May 02:44:25 02:47:51 19° 266° (W) 02:51:09 437.505
STARS 29 May 02:59:11 03:03:32 58° 75° (ENE) 03:07:56 437.465
PHONESAT 2.4 29 May 02:59:25 03:02:47 43° 344° (NNW) 03:06:07 2401.200-2431.200
Gurwin Techsat 1B 29 May 03:06:41 03:12:00 72° 101° (E) 03:17:18 435.225
AO-7 29 May 03:08:26 03:11:38 13° 89° (E) 03:15:37 29.400- 29.500
BEESAT 2 29 May 03:12:15 03:16:18 61° 244° (WSW) 03:20:15 435.950
AIST 2 29 May 03:17:08 03:21:02 36° 56° (NE) 03:24:53 435.215
Oscar 19 29 May 03:37:33 03:40:34 15° 294° (WNW) 03:43:20 437.125/150
KKS-1 29 May 03:37:42 03:41:39 29° 264° (W) 03:45:33 437.445
VERMONT LUNAR 29 May 03:41:29 03:44:14 25° 4° (N) 03:46:58 437.305
Cosmos 2499 29 May 03:41:40 03:47:12 24° 273° (W) 03:52:36 435.465 / 435.565
MOZHAYETS 4 29 May 03:47:29 03:50:58 22° 71° (ENE) 03:54:33
ITAMSAT 1 29 May 03:55:15 04:00:01 36° 289° (WNW) 04:04:43 435.822/435.867
JAS-2 29 May 03:58:10 04:02:54 36° 98° (E) 04:07:58 435.910
BEESAT 3 29 May 03:59:48 04:01:55 14° 250° (WSW) 04:03:50 437.485
SO-50 29 May 04:08:32 04:10:48 13° 316° (NW) 04:12:52 436.795
